User: anonymous   Login
Location: Ostrava
(49.8330°N, 18.2830°E)
Time: 22:30:22
(UTC+02:00)
Language:

Cosmos 2219 Rocket - Orbit

View from above orbital plane
View from above orbital plane
View from above satellite
View from above satellite

Ground track
Ground track

The orbit data is extracted from the following two-line orbital elements,

1 22220U 92076B   17200.90263200 +.00000119 +00000-0 +83893-4 0  9990
2 22220 071.0010 350.3838 0014439 229.5324 296.4229 14.16418559275403
Epoch (UTC): 19 July 2017 21:39:47
Eccentricity: 0.0014439
inclination: 71.0010°
perigee height: 827 km
apogee height: 848 km
right ascension of ascending node: 350.3838°
argument of perigee: 229.5324°
revolutions per day: 14.16418559
mean anomaly at epoch: 296.4229°
orbit number at epoch: 27540

The dashed part of the orbit path shows where the satellite is in the earth's shadow,  

DLR